Location: Kalberh�ni
(46.4610°N, 7.2453°E)
Time: 07:08:02
(UTC+00:00)

deb Kosmos-2227 - Pass Details

Date: 15 August 2022
Orbit: 774 x 865 km, 70.9° (Epoch: 26 September)

Event Time Altitude Azimuth Distance (km) Brightness Sun altitude
Rises 21:36:23 0° 340° (NNW) 3,334 ? -24.0°
Reaches altitude 10° 21:39:19 10° 355° (N) 2,416 ? -24.3°
Maximum altitude 21:43:39 23° 47° (NE) 1,702 ? -24.7°
Enters shadow 21:45:35 19° 75° (ENE) 1,876 ? -24.8°
